Location: Borgo
(42.3939°N, 9.2791°E)
Time: 18:29:15
(UTC+00:00)

ATLAS 5 CENTAUR R/B - Pass Details

Date: 24 January 2021
Orbit: 511 x 1147 km, 63.3° (Epoch: 16 February)

Event Time Altitude Azimuth Distance (km) Brightness Sun altitude
Rises 17:23:32 0° 276° (W) 2,717 6.3 -10.6°
Reaches altitude 10° 17:27:00 10° 309° (NW) 1,920 4.6 -11.3°
Maximum altitude 17:28:43 12° 333° (NNW) 1,842 4.1 -11.6°
Drops below altitude 10° 17:30:31 10° 356° (N) 2,042 4.1 -11.9°
Enters shadow 17:33:36 - 22° (NNE) 2,824 4.6 -12.4°
